Year,Month,Day,Hour,Minute,Value (Times are PST for temperature in C)
2018,07,04,00,00,12.40
2018,07,04,00,01,12.30
2018,07,04,00,02,12.30
2018,07,04,00,03,12.30
2018,07,04,00,04,12.30
2018,07,04,00,05,12.30
2018,07,04,00,06,12.30
2018,07,04,00,07,12.30
2018,07,04,00,08,12.30
2018,07,04,00,09,12.20
2018,07,04,00,10,12.20
2018,07,04,00,11,12.20
2018,07,04,00,12,12.20
2018,07,04,00,13,12.20
2018,07,04,00,14,12.20
2018,07,04,00,15,12.20
2018,07,04,00,16,12.20
2018,07,04,00,17,12.20
2018,07,04,00,18,12.20
2018,07,04,00,19,12.20
2018,07,04,00,20,12.20
2018,07,04,00,21,12.20
2018,07,04,00,22,12.20
2018,07,04,00,23,12.20
2018,07,04,00,24,12.20
2018,07,04,00,25,12.20
2018,07,04,00,26,12.20
2018,07,04,00,27,12.20
2018,07,04,00,28,12.20
2018,07,04,00,29,12.20
2018,07,04,00,30,12.20
2018,07,04,00,31,12.10
2018,07,04,00,32,12.10
2018,07,04,00,33,12.10
2018,07,04,00,34,12.10
2018,07,04,00,35,12.10
2018,07,04,00,36,12.10
2018,07,04,00,37,12.10
2018,07,04,00,38,12.10
2018,07,04,00,39,12.10
2018,07,04,00,40,12.10
2018,07,04,00,41,12.10
2018,07,04,00,42,12.10
2018,07,04,00,43,12.10
2018,07,04,00,44,12.10
2018,07,04,00,45,12.10
2018,07,04,00,46,12.10
2018,07,04,00,47,12.10
2018,07,04,00,48,12.00
2018,07,04,00,49,12.00
2018,07,04,00,50,12.00
2018,07,04,00,51,12.00
2018,07,04,00,52,12.00
2018,07,04,00,53,11.90
2018,07,04,00,54,11.90
2018,07,04,00,55,11.90
2018,07,04,00,56,11.90
2018,07,04,00,57,11.90
2018,07,04,00,58,11.90
2018,07,04,00,59,11.90
2018,07,04,01,00,11.90
2018,07,04,01,01,11.90
2018,07,04,01,02,11.90
2018,07,04,01,03,11.90
2018,07,04,01,04,11.80
2018,07,04,01,05,11.80
2018,07,04,01,06,11.80
2018,07,04,01,07,11.80
2018,07,04,01,08,11.80
2018,07,04,01,09,11.80
2018,07,04,01,10,11.80
2018,07,04,01,11,11.80
2018,07,04,01,12,11.80
2018,07,04,01,13,11.80
2018,07,04,01,14,11.70
2018,07,04,01,15,11.70
2018,07,04,01,16,11.70
2018,07,04,01,17,11.70
2018,07,04,01,18,11.70
2018,07,04,01,19,11.70
2018,07,04,01,20,11.70
2018,07,04,01,21,11.70
2018,07,04,01,22,11.70
2018,07,04,01,23,11.70
2018,07,04,01,24,11.70
2018,07,04,01,25,11.60
2018,07,04,01,26,11.60
2018,07,04,01,27,11.60
2018,07,04,01,28,11.60
2018,07,04,01,29,11.60
2018,07,04,01,30,11.60
2018,07,04,01,31,11.60
2018,07,04,01,32,11.60
2018,07,04,01,33,11.60
2018,07,04,01,34,11.60
2018,07,04,01,35,11.60
2018,07,04,01,36,11.50
2018,07,04,01,37,11.50
2018,07,04,01,38,11.50
2018,07,04,01,39,11.50
2018,07,04,01,40,11.50
2018,07,04,01,41,11.50
2018,07,04,01,42,11.40
2018,07,04,01,43,11.40
2018,07,04,01,44,11.40
2018,07,04,01,45,11.40
2018,07,04,01,46,11.40
2018,07,04,01,47,11.40
2018,07,04,01,48,11.40
2018,07,04,01,49,11.40
2018,07,04,01,50,11.40
2018,07,04,01,51,11.40
2018,07,04,01,52,11.40
2018,07,04,01,53,11.40
2018,07,04,01,54,11.40
2018,07,04,01,55,11.30
2018,07,04,01,56,11.30
2018,07,04,01,57,11.30
2018,07,04,01,58,11.30
2018,07,04,01,59,11.30
2018,07,04,02,00,11.30
2018,07,04,02,01,11.30
2018,07,04,02,02,11.40
2018,07,04,02,03,11.40
2018,07,04,02,04,11.40
2018,07,04,02,05,11.40
2018,07,04,02,06,11.30
2018,07,04,02,07,11.30
2018,07,04,02,08,11.30
2018,07,04,02,09,11.30
2018,07,04,02,10,11.30
2018,07,04,02,11,11.30
2018,07,04,02,12,11.30
2018,07,04,02,13,11.30
2018,07,04,02,14,11.30
2018,07,04,02,15,11.30
2018,07,04,02,16,11.30
2018,07,04,02,17,11.30
2018,07,04,02,18,11.30
2018,07,04,02,19,11.30
2018,07,04,02,20,11.30
2018,07,04,02,21,11.30
2018,07,04,02,22,11.30
2018,07,04,02,23,11.30
2018,07,04,02,24,11.30
2018,07,04,02,25,11.30
2018,07,04,02,26,11.30
2018,07,04,02,27,11.30
2018,07,04,02,28,11.30
2018,07,04,02,29,11.30
2018,07,04,02,30,11.30
2018,07,04,02,31,11.30
2018,07,04,02,32,11.30
2018,07,04,02,33,11.30
2018,07,04,02,34,11.30
2018,07,04,02,35,11.30
2018,07,04,02,36,11.30
2018,07,04,02,37,11.30
2018,07,04,02,38,11.30
2018,07,04,02,39,11.30
2018,07,04,02,40,11.30
2018,07,04,02,41,11.30
2018,07,04,02,42,11.30
2018,07,04,02,43,11.30
2018,07,04,02,44,11.30
2018,07,04,02,45,11.30
2018,07,04,02,46,11.30
2018,07,04,02,47,11.30
2018,07,04,02,48,11.30
2018,07,04,02,49,11.30
2018,07,04,02,50,11.30
2018,07,04,02,51,11.30
2018,07,04,02,52,11.30
2018,07,04,02,53,11.30
2018,07,04,02,54,11.30
2018,07,04,02,55,11.30
2018,07,04,02,56,11.30
2018,07,04,02,57,11.30
2018,07,04,02,58,11.30
2018,07,04,02,59,11.20
2018,07,04,03,00,11.20
2018,07,04,03,01,11.20
2018,07,04,03,02,11.20
2018,07,04,03,06,11.30
2018,07,04,03,07,11.30
2018,07,04,03,08,11.30
2018,07,04,03,09,11.20
2018,07,04,03,10,11.20
2018,07,04,03,11,11.20
2018,07,04,03,12,11.20
2018,07,04,03,13,11.20
2018,07,04,03,14,11.20
2018,07,04,03,15,11.20
2018,07,04,03,16,11.30
2018,07,04,03,17,11.30
2018,07,04,03,18,11.30
2018,07,04,03,19,11.30
2018,07,04,03,20,11.30
2018,07,04,03,21,11.30
2018,07,04,03,22,11.30
2018,07,04,03,23,11.40
2018,07,04,03,24,11.50
2018,07,04,03,25,11.50
2018,07,04,03,26,11.50
2018,07,04,03,27,11.40
2018,07,04,03,28,11.40
2018,07,04,03,29,11.40
2018,07,04,03,30,11.30
2018,07,04,03,31,11.30
2018,07,04,03,32,11.30
2018,07,04,03,33,11.30
2018,07,04,03,34,11.20
2018,07,04,03,35,11.20
2018,07,04,03,36,11.20
2018,07,04,03,37,11.20
2018,07,04,03,38,11.20
2018,07,04,03,39,11.20
2018,07,04,03,40,11.20
2018,07,04,03,41,11.20
2018,07,04,03,42,11.20
2018,07,04,03,43,11.20
2018,07,04,03,44,11.20
2018,07,04,03,45,11.30
2018,07,04,03,46,11.30
2018,07,04,03,47,11.30
2018,07,04,03,48,11.30
2018,07,04,03,49,11.30
2018,07,04,03,50,11.30
2018,07,04,03,51,11.40
2018,07,04,03,52,11.40
2018,07,04,03,53,11.40
2018,07,04,03,54,11.40
2018,07,04,03,55,11.40
2018,07,04,03,56,11.50
2018,07,04,03,57,11.50
2018,07,04,03,58,11.50
2018,07,04,03,59,11.60
2018,07,04,04,00,11.60
2018,07,04,04,01,11.60
2018,07,04,04,02,11.60
2018,07,04,04,03,11.60
2018,07,04,04,04,11.60
2018,07,04,04,05,11.60
2018,07,04,04,06,11.60
2018,07,04,04,07,11.60
2018,07,04,04,08,11.60
2018,07,04,04,09,11.60
2018,07,04,04,10,11.50
2018,07,04,04,11,11.50
2018,07,04,04,12,11.50
2018,07,04,04,13,11.50
2018,07,04,04,14,11.50
2018,07,04,04,15,11.50
2018,07,04,04,16,11.50
2018,07,04,04,17,11.50
2018,07,04,04,18,11.50
2018,07,04,04,19,11.50
2018,07,04,04,20,11.50
2018,07,04,04,21,11.50
2018,07,04,04,22,11.60
2018,07,04,04,23,11.60
2018,07,04,04,24,11.60
2018,07,04,04,25,11.60
2018,07,04,04,26,11.60
2018,07,04,04,27,11.60
2018,07,04,04,28,11.60
2018,07,04,04,29,11.60
2018,07,04,04,30,11.60
2018,07,04,04,31,11.60
2018,07,04,04,32,11.60
2018,07,04,04,33,11.60
2018,07,04,04,34,11.60
2018,07,04,04,35,11.60
2018,07,04,04,36,11.60
2018,07,04,04,37,11.60
2018,07,04,04,38,11.60
2018,07,04,04,39,11.60
2018,07,04,04,40,11.60
2018,07,04,04,41,11.60
2018,07,04,04,42,11.60
2018,07,04,04,43,11.50
2018,07,04,04,44,11.50
2018,07,04,04,45,11.50
2018,07,04,04,46,11.50
2018,07,04,04,47,11.50
2018,07,04,04,48,11.50
2018,07,04,04,49,11.50
2018,07,04,04,50,11.50
2018,07,04,04,51,11.50
2018,07,04,04,52,11.50
2018,07,04,04,53,11.50
2018,07,04,04,54,11.50
2018,07,04,04,55,11.50
2018,07,04,04,56,11.50
2018,07,04,04,57,11.50
2018,07,04,04,58,11.50
2018,07,04,04,59,11.40
2018,07,04,05,00,11.40
2018,07,04,05,01,11.40
2018,07,04,05,02,11.40
2018,07,04,05,03,11.40
2018,07,04,05,04,11.40
2018,07,04,05,05,11.40
2018,07,04,05,06,11.40
2018,07,04,05,07,11.40
2018,07,04,05,08,11.40
2018,07,04,05,09,11.40
2018,07,04,05,10,11.40
2018,07,04,05,11,11.40
2018,07,04,05,12,11.40
2018,07,04,05,13,11.40
2018,07,04,05,14,11.40
2018,07,04,05,15,11.30
2018,07,04,05,16,11.30
2018,07,04,05,17,11.30
2018,07,04,05,18,11.30
2018,07,04,05,19,11.30
2018,07,04,05,20,11.30
2018,07,04,05,21,11.30
2018,07,04,05,22,11.30
2018,07,04,05,23,11.30
2018,07,04,05,24,11.20
2018,07,04,05,25,11.20
2018,07,04,05,26,11.20
2018,07,04,05,27,11.20
2018,07,04,05,28,11.20
2018,07,04,05,29,11.20
2018,07,04,05,30,11.20
2018,07,04,05,31,11.20
2018,07,04,05,32,11.20
2018,07,04,05,33,11.20
2018,07,04,05,34,11.20
2018,07,04,05,35,11.20
2018,07,04,05,36,11.20
2018,07,04,05,37,11.20
2018,07,04,05,38,11.20
2018,07,04,05,39,11.20
2018,07,04,05,40,11.10
2018,07,04,05,41,11.10
2018,07,04,05,42,11.10
2018,07,04,05,43,11.10
2018,07,04,05,44,11.10
2018,07,04,05,45,11.20
2018,07,04,05,46,11.20
2018,07,04,05,47,11.20
2018,07,04,05,48,11.20
2018,07,04,05,49,11.30
2018,07,04,05,50,11.30
2018,07,04,05,51,11.30
2018,07,04,05,52,11.30
2018,07,04,05,53,11.40
2018,07,04,05,54,11.40
2018,07,04,05,55,11.40
2018,07,04,05,56,11.40
2018,07,04,05,57,11.40
2018,07,04,05,58,11.50
2018,07,04,05,59,11.50
2018,07,04,06,00,11.50
2018,07,04,06,01,11.50
2018,07,04,06,02,11.50
2018,07,04,06,03,11.60
2018,07,04,06,04,11.60
2018,07,04,06,05,11.60
2018,07,04,06,06,11.60
2018,07,04,06,07,11.60
2018,07,04,06,08,11.70
2018,07,04,06,09,11.70
2018,07,04,06,10,11.70
2018,07,04,06,11,11.70
2018,07,04,06,12,11.70
2018,07,04,06,13,11.70
2018,07,04,06,14,11.80
2018,07,04,06,15,11.80
2018,07,04,06,16,11.80
2018,07,04,06,17,11.90
2018,07,04,06,18,11.90
2018,07,04,06,19,11.90
2018,07,04,06,20,11.90
2018,07,04,06,21,12.00
2018,07,04,06,22,12.00
2018,07,04,06,23,12.10
2018,07,04,06,24,12.10
2018,07,04,06,25,12.10
2018,07,04,06,26,12.20
2018,07,04,06,27,12.20
2018,07,04,06,28,12.20
2018,07,04,06,29,12.30
2018,07,04,06,30,12.30
2018,07,04,06,31,12.30
2018,07,04,06,32,12.30
2018,07,04,06,33,12.30
2018,07,04,06,34,12.40
2018,07,04,06,35,12.40
2018,07,04,06,36,12.40
2018,07,04,06,37,12.40
2018,07,04,06,38,12.40
2018,07,04,06,39,12.50
2018,07,04,06,40,12.50
2018,07,04,06,41,12.50
2018,07,04,06,42,12.50
2018,07,04,06,43,12.50
2018,07,04,06,44,12.60
2018,07,04,06,45,12.60
2018,07,04,06,46,12.60
2018,07,04,06,47,12.60
2018,07,04,06,48,12.70
2018,07,04,06,49,12.70
2018,07,04,06,50,12.70
2018,07,04,06,51,12.80
2018,07,04,06,52,12.80
2018,07,04,06,53,12.90
2018,07,04,06,54,12.90
2018,07,04,06,55,13.00
2018,07,04,06,56,13.00
2018,07,04,06,57,13.00
2018,07,04,06,58,13.10
2018,07,04,06,59,13.20
2018,07,04,07,00,13.20
2018,07,04,07,01,13.30
2018,07,04,07,02,13.30
2018,07,04,07,03,13.40
2018,07,04,07,04,13.40
2018,07,04,07,05,13.50
2018,07,04,07,06,13.60
2018,07,04,07,07,13.70
2018,07,04,07,08,13.70
2018,07,04,07,09,13.80
2018,07,04,07,10,13.90
2018,07,04,07,11,13.90
2018,07,04,07,12,14.00
2018,07,04,07,13,14.10
2018,07,04,07,14,14.20
2018,07,04,07,15,14.30
2018,07,04,07,16,14.40
2018,07,04,07,17,14.40
2018,07,04,07,18,14.50
2018,07,04,07,19,14.60
2018,07,04,07,20,14.70
2018,07,04,07,21,14.80
2018,07,04,07,22,14.80
2018,07,04,07,23,14.90
2018,07,04,07,24,15.00
2018,07,04,07,25,15.10
2018,07,04,07,26,15.20
2018,07,04,07,27,15.30
2018,07,04,07,28,15.40
2018,07,04,07,29,15.50
2018,07,04,07,30,15.50
2018,07,04,07,31,15.60
2018,07,04,07,32,15.70
2018,07,04,07,33,15.80
2018,07,04,07,34,15.80
2018,07,04,07,35,15.90
2018,07,04,07,36,16.00
2018,07,04,07,37,16.10
2018,07,04,07,38,16.10
2018,07,04,07,39,16.20
2018,07,04,07,40,16.30
2018,07,04,07,41,16.30
2018,07,04,07,42,16.40
2018,07,04,07,43,16.50
2018,07,04,07,44,16.60
2018,07,04,07,45,16.60
2018,07,04,07,46,16.70
2018,07,04,07,47,16.80
2018,07,04,07,48,16.80
2018,07,04,07,49,16.90
2018,07,04,07,50,16.90
2018,07,04,07,51,17.00
2018,07,04,07,52,17.00
2018,07,04,07,53,17.10
2018,07,04,07,54,17.20
2018,07,04,07,55,17.20
2018,07,04,07,56,17.30
2018,07,04,07,57,17.30
2018,07,04,07,58,17.40
2018,07,04,07,59,17.40
2018,07,04,08,00,17.50
2018,07,04,08,01,17.60
2018,07,04,08,02,17.60
2018,07,04,08,03,17.70
2018,07,04,08,04,17.80
2018,07,04,08,05,17.80
2018,07,04,08,06,17.90
2018,07,04,08,07,17.90
2018,07,04,08,08,18.00
2018,07,04,08,09,18.00
2018,07,04,08,10,18.10
2018,07,04,08,11,18.20
2018,07,04,08,12,18.20
2018,07,04,08,13,18.20
2018,07,04,08,14,18.30
2018,07,04,08,15,18.30
2018,07,04,08,16,18.40
2018,07,04,08,17,18.50
2018,07,04,08,18,18.50
2018,07,04,08,19,18.60
2018,07,04,08,20,18.60
2018,07,04,08,21,18.70
2018,07,04,08,22,18.70
2018,07,04,08,23,18.70
2018,07,04,08,24,18.70
2018,07,04,08,25,18.80
2018,07,04,08,26,18.80
2018,07,04,08,27,18.90
2018,07,04,08,28,18.90
2018,07,04,08,29,19.00
2018,07,04,08,30,19.00
2018,07,04,08,31,19.10
2018,07,04,08,32,19.20
2018,07,04,08,33,19.20
2018,07,04,08,34,19.30
2018,07,04,08,35,19.30
2018,07,04,08,36,19.30
2018,07,04,08,37,19.30
2018,07,04,08,38,19.40
2018,07,04,08,39,19.40
2018,07,04,08,40,19.50
2018,07,04,08,41,19.50
2018,07,04,08,42,19.50
2018,07,04,08,43,19.60
2018,07,04,08,44,19.60
2018,07,04,08,45,19.60
2018,07,04,08,46,19.60
2018,07,04,08,47,19.50
2018,07,04,08,48,19.50
2018,07,04,08,49,19.50
2018,07,04,08,50,19.60
2018,07,04,08,51,19.60
2018,07,04,08,52,19.60
2018,07,04,08,53,19.60
2018,07,04,08,54,19.60
2018,07,04,08,55,19.60
2018,07,04,08,56,19.60
2018,07,04,08,57,19.60
2018,07,04,08,58,19.60
2018,07,04,08,59,19.70
2018,07,04,09,00,19.70
2018,07,04,09,01,19.70
2018,07,04,09,02,19.80
2018,07,04,09,03,19.80
2018,07,04,09,04,19.80
2018,07,04,09,05,19.80
2018,07,04,09,06,19.90
2018,07,04,09,07,19.90
2018,07,04,09,08,19.90
2018,07,04,09,09,19.90
2018,07,04,09,10,19.90
2018,07,04,09,11,19.90
2018,07,04,09,12,19.90
2018,07,04,09,13,19.90
2018,07,04,09,14,19.90
2018,07,04,09,15,19.90
2018,07,04,09,16,20.00
2018,07,04,09,17,20.00
2018,07,04,09,18,20.00
2018,07,04,09,19,19.90
2018,07,04,09,20,19.90
2018,07,04,09,21,20.00
2018,07,04,09,22,20.00
2018,07,04,09,23,20.10
2018,07,04,09,24,20.20
2018,07,04,09,25,20.20
2018,07,04,09,26,20.20
2018,07,04,09,27,20.30
2018,07,04,09,28,20.40
2018,07,04,09,29,20.40
2018,07,04,09,30,20.50
2018,07,04,09,31,20.60
2018,07,04,09,32,20.70
2018,07,04,09,33,20.70
2018,07,04,09,34,20.70
2018,07,04,09,35,20.70
2018,07,04,09,36,20.80
2018,07,04,09,37,20.80
2018,07,04,09,38,20.80
2018,07,04,09,39,20.90
2018,07,04,09,40,20.90
2018,07,04,09,41,21.00
2018,07,04,09,42,21.10
2018,07,04,09,43,21.20
2018,07,04,09,44,21.20
2018,07,04,09,45,21.30
2018,07,04,09,46,21.30
2018,07,04,09,47,21.30
2018,07,04,09,48,21.30
2018,07,04,09,49,21.30
2018,07,04,09,50,21.30
2018,07,04,09,51,21.30
2018,07,04,09,52,21.30
2018,07,04,09,53,21.30
2018,07,04,09,54,21.30
2018,07,04,09,55,21.40
2018,07,04,09,56,21.40
2018,07,04,09,57,21.40
2018,07,04,09,58,21.40
2018,07,04,09,59,21.50
2018,07,04,10,00,21.60
2018,07,04,10,01,21.60
2018,07,04,10,02,21.70
2018,07,04,10,03,21.80
2018,07,04,10,04,21.80
2018,07,04,10,05,21.90
2018,07,04,10,06,21.90
2018,07,04,10,07,22.00
2018,07,04,10,08,22.00
2018,07,04,10,09,22.10
2018,07,04,10,10,22.10
2018,07,04,10,11,22.10
2018,07,04,10,12,22.10
2018,07,04,10,13,22.10
2018,07,04,10,14,22.10
2018,07,04,10,15,22.10
2018,07,04,10,16,22.10
2018,07,04,10,17,22.10
2018,07,04,10,18,22.00
2018,07,04,10,19,22.00
2018,07,04,10,20,22.00
2018,07,04,10,21,22.00
2018,07,04,10,22,22.00
2018,07,04,10,23,22.10
2018,07,04,10,24,22.10
2018,07,04,10,25,22.10
2018,07,04,10,26,22.20
2018,07,04,10,27,22.20
2018,07,04,10,28,22.20
2018,07,04,10,29,22.20
2018,07,04,10,30,22.30
2018,07,04,10,31,22.30
2018,07,04,10,32,22.30
2018,07,04,10,33,22.30
2018,07,04,10,34,22.20
2018,07,04,10,35,22.20
2018,07,04,10,36,22.20
2018,07,04,10,37,22.20
2018,07,04,10,38,22.20
2018,07,04,10,39,22.20
2018,07,04,10,40,22.20
2018,07,04,10,41,22.20
2018,07,04,10,42,22.20
2018,07,04,10,43,22.20
2018,07,04,10,44,22.30
2018,07,04,10,45,22.40
2018,07,04,10,46,22.40
2018,07,04,10,47,22.50
2018,07,04,10,48,22.60
2018,07,04,10,49,22.70
2018,07,04,10,50,22.80
2018,07,04,10,51,22.80
2018,07,04,10,52,22.90
2018,07,04,10,53,22.90
2018,07,04,10,54,23.00
2018,07,04,10,55,23.00
2018,07,04,10,56,23.00
2018,07,04,10,57,22.90
2018,07,04,10,58,22.90
2018,07,04,10,59,22.90
2018,07,04,11,00,22.90
2018,07,04,11,01,22.90
2018,07,04,11,02,22.90
2018,07,04,11,03,23.00
2018,07,04,11,04,23.10
2018,07,04,11,05,23.20
2018,07,04,11,06,23.30
2018,07,04,11,07,23.30
2018,07,04,11,08,23.40
2018,07,04,11,09,23.50
2018,07,04,11,10,23.60
2018,07,04,11,11,23.70
2018,07,04,11,12,23.80
2018,07,04,11,13,23.80
2018,07,04,11,14,23.90
2018,07,04,11,15,23.90
2018,07,04,11,16,24.00
2018,07,04,11,17,24.10
2018,07,04,11,18,24.10
2018,07,04,11,19,24.10
2018,07,04,11,20,24.10
2018,07,04,11,21,24.10
2018,07,04,11,22,24.20
2018,07,04,11,23,24.20
2018,07,04,11,24,24.30
2018,07,04,11,25,24.30
2018,07,04,11,26,24.40
2018,07,04,11,27,24.30
2018,07,04,11,28,24.30
2018,07,04,11,29,24.30
2018,07,04,11,30,24.30
2018,07,04,11,31,24.30
2018,07,04,11,32,24.30
2018,07,04,11,33,24.30
2018,07,04,11,34,24.30
2018,07,04,11,35,24.40
2018,07,04,11,36,24.50
2018,07,04,11,37,24.60
2018,07,04,11,38,24.60
2018,07,04,11,39,24.70
2018,07,04,11,40,24.70
2018,07,04,11,41,24.70
2018,07,04,11,42,24.60
2018,07,04,11,43,24.60
2018,07,04,11,44,24.60
2018,07,04,11,45,24.60
2018,07,04,11,46,24.60
2018,07,04,11,47,24.60
2018,07,04,11,48,24.60
2018,07,04,11,49,24.60
2018,07,04,11,50,24.60
2018,07,04,11,51,24.60
2018,07,04,11,52,24.60
2018,07,04,11,53,24.60
2018,07,04,11,54,24.60
2018,07,04,11,55,24.70
2018,07,04,11,56,24.70
2018,07,04,11,57,24.80
2018,07,04,11,58,24.80
2018,07,04,11,59,24.80
2018,07,04,12,00,24.90
2018,07,04,12,01,24.90
2018,07,04,12,02,24.90
2018,07,04,12,03,24.90
2018,07,04,12,04,24.80
2018,07,04,12,05,24.80
2018,07,04,12,06,24.80
2018,07,04,12,07,24.80
2018,07,04,12,08,24.80
2018,07,04,12,09,24.80
2018,07,04,12,10,24.70
2018,07,04,12,11,24.70
2018,07,04,12,12,24.70
2018,07,04,12,13,24.70
2018,07,04,12,14,24.60
2018,07,04,12,15,24.60
2018,07,04,12,16,24.50
2018,07,04,12,17,24.50
2018,07,04,12,18,24.50
2018,07,04,12,19,24.50
2018,07,04,12,20,24.60
2018,07,04,12,21,24.60
2018,07,04,12,22,24.60
2018,07,04,12,23,24.70
2018,07,04,12,24,24.70
2018,07,04,12,25,24.80
2018,07,04,12,26,24.80
2018,07,04,12,27,24.80
2018,07,04,12,28,24.90
2018,07,04,12,29,24.90
2018,07,04,12,30,25.00
2018,07,04,12,31,25.00
2018,07,04,12,32,25.10
2018,07,04,12,33,25.10
2018,07,04,12,34,25.10
2018,07,04,12,35,25.10
2018,07,04,12,36,25.10
2018,07,04,12,37,25.10
2018,07,04,12,38,25.20
2018,07,04,12,39,25.10
2018,07,04,12,40,25.20
2018,07,04,12,41,25.20
2018,07,04,12,42,25.20
2018,07,04,12,43,25.20
2018,07,04,12,44,25.20
2018,07,04,12,45,25.10
2018,07,04,12,46,25.10
2018,07,04,12,47,25.10
2018,07,04,12,48,25.10
2018,07,04,12,49,25.10
2018,07,04,12,50,25.00
2018,07,04,12,51,25.00
2018,07,04,12,52,24.90
2018,07,04,12,53,24.80
2018,07,04,12,54,24.80
2018,07,04,12,55,24.80
2018,07,04,12,56,24.80
2018,07,04,12,57,24.80
2018,07,04,12,58,24.70
2018,07,04,12,59,24.70
2018,07,04,13,00,24.70
2018,07,04,13,01,24.60
2018,07,04,13,02,24.60
2018,07,04,13,03,24.50
2018,07,04,13,04,24.50
2018,07,04,13,05,24.50
2018,07,04,13,06,24.50
2018,07,04,13,07,24.40
2018,07,04,13,08,24.40
2018,07,04,13,09,24.40
2018,07,04,13,10,24.30
2018,07,04,13,11,24.30
2018,07,04,13,12,24.30
2018,07,04,13,13,24.30
2018,07,04,13,14,24.30
2018,07,04,13,15,24.30
2018,07,04,13,16,24.30
2018,07,04,13,17,24.30
2018,07,04,13,18,24.30
2018,07,04,13,19,24.30
2018,07,04,13,20,24.30
2018,07,04,13,21,24.30
2018,07,04,13,22,24.40
2018,07,04,13,23,24.40
2018,07,04,13,24,24.40
2018,07,04,13,25,24.40
2018,07,04,13,26,24.50
2018,07,04,13,27,24.60
2018,07,04,13,28,24.60
2018,07,04,13,29,24.70
2018,07,04,13,30,24.70
2018,07,04,13,31,24.80
2018,07,04,13,32,24.80
2018,07,04,13,33,24.90
2018,07,04,13,34,24.90
2018,07,04,13,35,24.90
2018,07,04,13,36,24.80
2018,07,04,13,37,24.80
2018,07,04,13,38,24.90
2018,07,04,13,39,24.90
2018,07,04,13,40,25.00
2018,07,04,13,41,25.00
2018,07,04,13,42,25.10
2018,07,04,13,43,25.10
2018,07,04,13,44,25.10
2018,07,04,13,45,25.10
2018,07,04,13,46,25.10
2018,07,04,13,47,25.10
2018,07,04,13,48,25.10
2018,07,04,13,49,25.00
2018,07,04,13,50,25.00
2018,07,04,13,51,24.90
2018,07,04,13,52,24.90
2018,07,04,13,53,24.80
2018,07,04,13,54,24.80
2018,07,04,13,55,24.70
2018,07,04,13,56,24.70
2018,07,04,13,57,24.70
2018,07,04,13,58,24.70
2018,07,04,13,59,24.70
2018,07,04,14,00,24.70
2018,07,04,14,01,24.70
2018,07,04,14,02,24.80
2018,07,04,14,03,24.80
2018,07,04,14,04,24.90
2018,07,04,14,05,24.90
2018,07,04,14,06,24.90
2018,07,04,14,07,24.90
2018,07,04,14,08,24.90
2018,07,04,14,09,24.80
2018,07,04,14,10,24.80
2018,07,04,14,11,24.80
2018,07,04,14,12,24.80
2018,07,04,14,13,24.80
2018,07,04,14,14,24.80
2018,07,04,14,15,24.80
2018,07,04,14,16,24.80
2018,07,04,14,17,24.80
2018,07,04,14,18,24.80
2018,07,04,14,19,24.80
2018,07,04,14,20,24.80
2018,07,04,14,21,24.80
2018,07,04,14,22,24.80
2018,07,04,14,23,24.80
2018,07,04,14,24,24.80
2018,07,04,14,25,24.90
2018,07,04,14,26,24.90
2018,07,04,14,27,24.90
2018,07,04,14,28,24.90
2018,07,04,14,29,24.90
2018,07,04,14,30,24.90
2018,07,04,14,31,24.90
2018,07,04,14,32,24.90
2018,07,04,14,33,25.00
2018,07,04,14,34,25.00
2018,07,04,14,35,25.00
2018,07,04,14,36,25.10
2018,07,04,14,37,25.10
2018,07,04,14,38,25.10
2018,07,04,14,39,25.00
2018,07,04,14,40,25.00
2018,07,04,14,41,25.10
2018,07,04,14,42,25.10
2018,07,04,14,43,25.10
2018,07,04,14,44,25.20
2018,07,04,14,45,25.20
2018,07,04,14,46,25.20
2018,07,04,14,47,25.30
2018,07,04,14,48,25.30
2018,07,04,14,49,25.30
2018,07,04,14,50,25.30
2018,07,04,14,51,25.40
2018,07,04,14,52,25.30
2018,07,04,14,53,25.40
2018,07,04,14,54,25.40
2018,07,04,14,55,25.40
2018,07,04,14,56,25.40
2018,07,04,14,57,25.40
2018,07,04,14,58,25.40
2018,07,04,14,59,25.40
2018,07,04,15,00,25.50
2018,07,04,15,01,25.50
2018,07,04,15,02,25.40
2018,07,04,15,03,25.40
2018,07,04,15,04,25.40
2018,07,04,15,05,25.40
2018,07,04,15,06,25.40
2018,07,04,15,07,25.40
2018,07,04,15,08,25.40
2018,07,04,15,09,25.50
2018,07,04,15,10,25.50
2018,07,04,15,11,25.60
2018,07,04,15,12,25.60
2018,07,04,15,13,25.60
2018,07,04,15,14,25.70
2018,07,04,15,15,25.70
2018,07,04,15,16,25.80
2018,07,04,15,17,25.80
2018,07,04,15,18,25.90
2018,07,04,15,19,26.00
2018,07,04,15,20,26.10
2018,07,04,15,21,26.10
2018,07,04,15,22,26.20
2018,07,04,15,23,26.20
2018,07,04,15,24,26.20
2018,07,04,15,25,26.20
2018,07,04,15,26,26.30
2018,07,04,15,27,26.30
2018,07,04,15,28,26.30
2018,07,04,15,29,26.30
2018,07,04,15,30,26.30
2018,07,04,15,31,26.30
2018,07,04,15,32,26.30
2018,07,04,15,33,26.30
2018,07,04,15,34,26.30
2018,07,04,15,35,26.30
2018,07,04,15,36,26.30
2018,07,04,15,37,26.30
2018,07,04,15,38,26.30
2018,07,04,15,39,26.30
2018,07,04,15,40,26.30
2018,07,04,15,41,26.30
2018,07,04,15,42,26.30
2018,07,04,15,43,26.30
2018,07,04,15,44,26.40
2018,07,04,15,45,26.40
2018,07,04,15,46,26.40
2018,07,04,15,47,26.50
2018,07,04,15,48,26.50
2018,07,04,15,49,26.50
2018,07,04,15,50,26.50
2018,07,04,15,51,26.50
2018,07,04,15,52,26.40
2018,07,04,15,53,26.50
2018,07,04,15,54,26.50
2018,07,04,15,55,26.50
2018,07,04,15,56,26.50
2018,07,04,15,57,26.60
2018,07,04,15,58,26.60
2018,07,04,15,59,26.60
2018,07,04,16,00,26.60
2018,07,04,16,01,26.60
2018,07,04,16,02,26.60
2018,07,04,16,03,26.60
2018,07,04,16,04,26.60
2018,07,04,16,05,26.50
2018,07,04,16,06,26.50
2018,07,04,16,07,26.40
2018,07,04,16,08,26.40
2018,07,04,16,09,26.30
2018,07,04,16,10,26.30
2018,07,04,16,11,26.30
2018,07,04,16,12,26.20
2018,07,04,16,13,26.10
2018,07,04,16,14,26.10
2018,07,04,16,15,26.00
2018,07,04,16,16,25.90
2018,07,04,16,17,25.90
2018,07,04,16,18,25.80
2018,07,04,16,19,25.80
2018,07,04,16,20,25.80
2018,07,04,16,21,25.70
2018,07,04,16,22,25.70
2018,07,04,16,23,25.70
2018,07,04,16,24,25.60
2018,07,04,16,25,25.50
2018,07,04,16,26,25.40
2018,07,04,16,27,25.40
2018,07,04,16,28,25.30
2018,07,04,16,29,25.20
2018,07,04,16,30,25.10
2018,07,04,16,31,25.10
2018,07,04,16,32,25.10
2018,07,04,16,33,25.10
2018,07,04,16,34,25.00
2018,07,04,16,35,25.00
2018,07,04,16,36,24.90
2018,07,04,16,37,24.80
2018,07,04,16,38,24.80
2018,07,04,16,39,24.70
2018,07,04,16,40,24.70
2018,07,04,16,41,24.70
2018,07,04,16,42,24.60
2018,07,04,16,43,24.50
2018,07,04,16,44,24.50
2018,07,04,16,45,24.40
2018,07,04,16,46,24.40
2018,07,04,16,47,24.40
2018,07,04,16,48,24.40
2018,07,04,16,49,24.40
2018,07,04,16,50,24.40
2018,07,04,16,51,24.40
2018,07,04,16,52,24.40
2018,07,04,16,53,24.40
2018,07,04,16,54,24.30
2018,07,04,16,55,24.30
2018,07,04,16,56,24.30
2018,07,04,16,57,24.30
2018,07,04,16,58,24.30
2018,07,04,16,59,24.30
2018,07,04,17,00,24.30
2018,07,04,17,01,24.30
2018,07,04,17,02,24.30
2018,07,04,17,03,24.30
2018,07,04,17,04,24.30
2018,07,04,17,05,24.30
2018,07,04,17,06,24.30
2018,07,04,17,07,24.30
2018,07,04,17,08,24.30
2018,07,04,17,09,24.40
2018,07,04,17,10,24.40
2018,07,04,17,11,24.40
2018,07,04,17,12,24.50
2018,07,04,17,13,24.50
2018,07,04,17,14,24.50
2018,07,04,17,15,24.50
2018,07,04,17,16,24.50
2018,07,04,17,17,24.60
2018,07,04,17,18,24.60
2018,07,04,17,19,24.60
2018,07,04,17,20,24.60
2018,07,04,17,21,24.60
2018,07,04,17,22,24.60